When you browse on this site, cookies collect data to enhance your experience and personalize the content and advertising you see.
Visit our Privacy Policy to learn more. By continuing to use the site, you agree to this use of cookies and data.

Hourly Weather Selfoss

Today, 10 August, Monday

Time Temperature Precipitation Wind Pressure Humidity
00:00 +12°C° 0.7 mm 4 mps 753 mmHg 98%
01:00 +12°C° 0.7 mm 4 mps 753 mmHg 98%
02:00 +12°C° 0.7 mm 4 mps 753 mmHg 98%
03:00 +12°C° 0.5 mm 4 mps 753 mmHg 98%
04:00 +12°C° 0.5 mm 3 mps 753 mmHg 98%
05:00 +12°C° 0.5 mm 3 mps 753 mmHg 98%
06:00 +12°C° 0.6 mm 3 mps 753 mmHg 98%
07:00 +12°C° 0.6 mm 3 mps 754 mmHg 98%
08:00 +12°C° 0.6 mm 3 mps 754 mmHg 98%
09:00 +12°C° 0.2 mm 4 mps 754 mmHg 98%
10:00 +12°C° 0.2 mm 4 mps 754 mmHg 97%
11:00 +12°C° 0.2 mm 5 mps 754 mmHg 97%
12:00 +12°C° 0.1 mm 5 mps 754 mmHg 96%
13:00 +13°C° 0.1 mm 6 mps 754 mmHg 96%
14:00 +13°C° 0.1 mm 6 mps 755 mmHg 95%
15:00 +11°C° 0.5 mm 6 mps 755 mmHg 96%
16:00 +11°C° 0.5 mm 7 mps 755 mmHg 96%
17:00 +11°C° 0.5 mm 7 mps 755 mmHg 96%
18:00 +10°C° 1.2 mm 7 mps 755 mmHg 97%
19:00 +10°C° 1.2 mm 8 mps 756 mmHg 97%
20:00 +10°C° 1.2 mm 8 mps 756 mmHg 97%
21:00 +10°C° 0.5 mm 7 mps 756 mmHg 97%
22:00 +10°C° 0.5 mm 7 mps 756 mmHg 97%
23:00 +11°C° 0.5 mm 7 mps 757 mmHg 97%

Tomorrow, 11 August, Tuesday

Time Temperature Precipitation Wind Pressure Humidity
00:00 +11°C° 0.3 mm 7 mps 757 mmHg 98%
01:00 +11°C° 0.3 mm 6 mps 757 mmHg 98%
02:00 +11°C° 0.3 mm 6 mps 757 mmHg 98%
03:00 +11°C° 0.4 mm 6 mps 757 mmHg 98%
04:00 +11°C° 0.4 mm 7 mps 757 mmHg 98%
05:00 +11°C° 0.4 mm 7 mps 757 mmHg 97%
06:00 +11°C° 1.4 mm 7 mps 758 mmHg 97%
07:00 +11°C° 1.4 mm 7 mps 758 mmHg 97%
08:00 +11°C° 1.4 mm 7 mps 759 mmHg 97%
09:00 +11°C° 0.9 mm 7 mps 759 mmHg 97%
10:00 +11°C° 0.9 mm 7 mps 759 mmHg 97%
11:00 +11°C° 0.9 mm 6 mps 759 mmHg 97%
12:00 +11°C° 1.7 mm 6 mps 759 mmHg 98%
13:00 +12°C° 1.7 mm 5 mps 759 mmHg 98%
14:00 +12°C° 1.7 mm 4 mps 759 mmHg 98%
15:00 +12°C° 2.6 mm 5 mps 759 mmHg 98%
16:00 +12°C° 2.6 mm 5 mps 759 mmHg 98%
17:00 +12°C° 2.6 mm 5 mps 758 mmHg 98%
18:00 +12°C° 2.2 mm 5 mps 759 mmHg 98%
19:00 +12°C° 2.2 mm 5 mps 759 mmHg 98%
20:00 +12°C° 2.2 mm 4 mps 759 mmHg 98%
21:00 +12°C° 0.7 mm 4 mps 759 mmHg 98%
22:00 +11°C° 0.7 mm 4 mps 759 mmHg 98%
23:00 +11°C° 0.7 mm 3 mps 759 mmHg 98%

Day after tomorrow, 12 August, Wednesday

Time Temperature Precipitation Wind Pressure Humidity
00:00 +11°C° 0 mm 3 mps 760 mmHg 97%
01:00 +10°C° 0 mm 3 mps 760 mmHg 96%
02:00 +9°C° 0 mm 3 mps 760 mmHg 95%
03:00 +9°C° 0 mm 3 mps 760 mmHg 94%
04:00 +8°C° 0 mm 3 mps 760 mmHg 93%
05:00 +7°C° 0 mm 3 mps 761 mmHg 92%
06:00 +8°C° 0 mm 3 mps 761 mmHg 87%
07:00 +9°C° 0 mm 3 mps 761 mmHg 83%
08:00 +10°C° 0 mm 3 mps 761 mmHg 78%
09:00 +11°C° 0 mm 3 mps 762 mmHg 71%
10:00 +12°C° 0 mm 3 mps 762 mmHg 65%
11:00 +12°C° 0 mm 3 mps 762 mmHg 58%
12:00 +13°C° 0 mm 3 mps 762 mmHg 56%
13:00 +13°C° 0 mm 4 mps 762 mmHg 54%
14:00 +13°C° 0 mm 4 mps 762 mmHg 52%
15:00 +13°C° 0 mm 4 mps 762 mmHg 54%
16:00 +12°C° 0 mm 4 mps 762 mmHg 56%
17:00 +12°C° 0 mm 4 mps 762 mmHg 57%
18:00 +11°C° 0 mm 4 mps 762 mmHg 65%
19:00 +10°C° 0 mm 3 mps 762 mmHg 73%
20:00 +9°C° 0 mm 3 mps 762 mmHg 81%
21:00 +8°C° 0.2 mm 4 mps 761 mmHg 85%
22:00 +8°C° 0.2 mm 4 mps 761 mmHg 89%
23:00 +8°C° 0.2 mm 5 mps 761 mmHg 93%

13 August, Thursday

Time Temperature Precipitation Wind Pressure Humidity
00:00 +10°C° 0.4 mm 4 mps 760 mmHg 94%
01:00 +10°C° 0.4 mm 4 mps 760 mmHg 96%
02:00 +10°C° 0.4 mm 4 mps 760 mmHg 97%
03:00 +10°C° 0.9 mm 4 mps 759 mmHg 97%
04:00 +10°C° 0.9 mm 4 mps 759 mmHg 98%
05:00 +11°C° 0.9 mm 4 mps 759 mmHg 98%
06:00 +11°C° 0.3 mm 4 mps 758 mmHg 98%
07:00 +11°C° 0.3 mm 4 mps 758 mmHg 98%
08:00 +10°C° 0.3 mm 5 mps 758 mmHg 98%
09:00 +12°C° 0.8 mm 5 mps 758 mmHg 98%
10:00 +12°C° 0.8 mm 5 mps 758 mmHg 98%
11:00 +12°C° 0.8 mm 5 mps 757 mmHg 98%
12:00 +12°C° 0.6 mm 5 mps 757 mmHg 98%
13:00 +12°C° 0.6 mm 5 mps 756 mmHg 98%
14:00 +11°C° 0.6 mm 6 mps 756 mmHg 98%
15:00 +11°C° 0.5 mm 6 mps 756 mmHg 98%
16:00 +11°C° 0.5 mm 6 mps 755 mmHg 98%
17:00 +11°C° 0.5 mm 6 mps 755 mmHg 98%
18:00 +11°C° 0.7 mm 6 mps 755 mmHg 98%
19:00 +11°C° 0.7 mm 7 mps 754 mmHg 98%
20:00 +11°C° 0.7 mm 7 mps 754 mmHg 98%
21:00 +11°C° 0.6 mm 7 mps 754 mmHg 98%
22:00 +11°C° 0.6 mm 7 mps 753 mmHg 98%
23:00 +11°C° 0.6 mm 7 mps 753 mmHg 98%

14 August, Friday

Time Temperature Precipitation Wind Pressure Humidity
00:00 +11°C° 0.5 mm 7 mps 753 mmHg 98%
01:00 +11°C° 0.5 mm 6 mps 753 mmHg 98%
02:00 +11°C° 0.5 mm 6 mps 752 mmHg 98%
03:00 +11°C° 0.1 mm 6 mps 752 mmHg 97%
04:00 +12°C° 0.1 mm 5 mps 752 mmHg 97%
05:00 +12°C° 0.1 mm 5 mps 752 mmHg 97%
06:00 +12°C° 0 mm 5 mps 753 mmHg 94%
07:00 +12°C° 0 mm 5 mps 753 mmHg 91%
08:00 +12°C° 0 mm 4 mps 753 mmHg 89%
09:00 +12°C° 0 mm 4 mps 753 mmHg 84%
10:00 +12°C° 0 mm 4 mps 753 mmHg 80%
11:00 +13°C° 0 mm 4 mps 754 mmHg 75%
12:00 +13°C° 0 mm 4 mps 754 mmHg 74%
13:00 +13°C° 0 mm 4 mps 754 mmHg 72%
14:00 +13°C° 0 mm 5 mps 754 mmHg 71%
15:00 +13°C° 0 mm 4 mps 754 mmHg 73%
16:00 +13°C° 0 mm 4 mps 754 mmHg 76%
17:00 +12°C° 0 mm 4 mps 754 mmHg 78%
18:00 +12°C° 0.1 mm 3 mps 754 mmHg 84%
19:00 +12°C° 0.1 mm 3 mps 753 mmHg 89%
20:00 +11°C° 0.1 mm 3 mps 753 mmHg 95%
21:00 +11°C° 0.4 mm 3 mps 753 mmHg 96%
22:00 +12°C° 0.4 mm 3 mps 753 mmHg 97%
23:00 +12°C° 0.4 mm 4 mps 752 mmHg 98%

15 August, Saturday

Time Temperature Precipitation Wind Pressure Humidity
00:00 +12°C° 1.7 mm 4 mps 752 mmHg 98%
01:00 +12°C° 1.7 mm 5 mps 752 mmHg 98%
02:00 +12°C° 1.7 mm 5 mps 751 mmHg 98%
03:00 +11°C° 1.9 mm 6 mps 751 mmHg 98%
04:00 +11°C° 1.9 mm 6 mps 751 mmHg 98%
05:00 +11°C° 1.9 mm 6 mps 751 mmHg 98%
06:00 +11°C° 1.9 mm 6 mps 751 mmHg 98%
07:00 +11°C° 1.9 mm 6 mps 751 mmHg 98%
08:00 +12°C° 1.9 mm 5 mps 752 mmHg 98%
09:00 +12°C° 0.8 mm 5 mps 752 mmHg 98%
10:00 +12°C° 0.8 mm 5 mps 752 mmHg 98%
11:00 +12°C° 0.8 mm 5 mps 753 mmHg 98%
12:00 +12°C° 0.6 mm 5 mps 753 mmHg 98%
13:00 +12°C° 0.6 mm 5 mps 753 mmHg 98%
14:00 +12°C° 0.6 mm 5 mps 753 mmHg 98%
15:00 +12°C° 2.2 mm 5 mps 753 mmHg 98%
16:00 +12°C° 2.2 mm 4 mps 753 mmHg 98%
17:00 +12°C° 2.2 mm 4 mps 753 mmHg 98%
18:00 +12°C° 1.8 mm 4 mps 753 mmHg 98%
19:00 +12°C° 1.8 mm 4 mps 754 mmHg 98%
20:00 +12°C° 1.8 mm 4 mps 754 mmHg 98%
21:00 +12°C° 0.8 mm 4 mps 754 mmHg 98%
22:00 +12°C° 0.8 mm 4 mps 754 mmHg 98%
23:00 +12°C° 0.8 mm 5 mps 755 mmHg 98%
Show more